This is the latest recevied weather packets stored in our database for station/object K6CED. If no packets are shown the sender has not sent any weather packets the latest 10 day(s).
| Time | Temp. | Humidity | Pressure | Rain* | Wind** | Luminosity | Snow |
|---|---|---|---|---|---|---|---|
| 1787446938 | 35° C | 34% | 1015 hPa | 0 mm | - | 109 W/m² | - |
| 1787446637 | 35.56° C | 34% | 1015 hPa | 0 mm | - | 118 W/m² | - |
| 1787446334 | 36.11° C | 33% | 1014.8 hPa | 0 mm | - | 138 W/m² | - |
| 1787446029 | 36.11° C | 33% | 1014.8 hPa | 0 mm | - | 156 W/m² | - |
| 1787445725 | 36.11° C | 34% | 1014.6 hPa | 0 mm | - | 174 W/m² | - |
| 1787445421 | 36.11° C | 33% | 1015 hPa | 0 mm | - | 192 W/m² | - |
| 1787445116 | 36.11° C | 32% | 1014.8 hPa | 0 mm | - | 208 W/m² | - |
| 1787444812 | 36.11° C | 33% | 1015 hPa | 0 mm | - | 225 W/m² | - |
| 1787444508 | 36.11° C | 31% | 1014.9 hPa | 0 mm | - | 243 W/m² | - |
| 1787444203 | 36.67° C | 31% | 1014.9 hPa | 0 mm | - | 263 W/m² | - |
| 1787443903 | 36.11° C | 31% | 1015 hPa | 0 mm | - | 283 W/m² | - |
| 1787443602 | 36.11° C | 32% | 1014.8 hPa | 0 mm | - | 301 W/m² | - |
| 1787443298 | 36.11° C | 31% | 1014.9 hPa | 0 mm | - | 317 W/m² | - |
| 1787442997 | 36.11° C | 32% | 1015 hPa | 0 mm | - | 328 W/m² | - |
| 1787442693 | 36.11° C | 31% | 1015.2 hPa | 0 mm | - | 342 W/m² | - |
| 1787442389 | 36.11° C | 31% | 1014.8 hPa | 0 mm | - | 355 W/m² | - |
| 1787442088 | 36.67° C | 30% | 1015.2 hPa | 0 mm | - | 369 W/m² | - |
| 1787441784 | 36.67° C | 31% | 1015 hPa | 0 mm | - | 382 W/m² | - |
| 1787441479 | 36.67° C | 31% | 1015 hPa | 0 mm | - | 404 W/m² | - |
| 1787441174 | 36.67° C | 31% | 1015.1 hPa | 0 mm | - | 424 W/m² | - |
| 1787440871 | 37.22° C | 31% | 1015 hPa | 0 mm | - | 445 W/m² | - |
| 1787440570 | 36.67° C | 30% | 1015 hPa | 0 mm | - | 465 W/m² | - |
| 1787440266 | 36.67° C | 31% | 1015 hPa | 0 mm | - | 481 W/m² | - |
| 1787439962 | 36.67° C | 30% | 1015.2 hPa | 0 mm | - | 499 W/m² | - |
| 1787439658 | 37.22° C | 27% | 1015.3 hPa | 0 mm | - | 517 W/m² | - |
* Rain latest hour (hover to see other rain measurements)
** Current wind speed in m/s (hover to see current wind gust speed)